Home > Weather > Knoxville > Past weeks

Flag for USA Past Weather in Knoxville, Tennessee, USA — Yesterday and Last 2 Weeks

Now
86 °F

Scattered clouds.


Feels Like: 86 °F
Forecast: 69 / 89 °F
Wind: 5 mph from West

Location: McGhee Tyson Airport

Current Time: Jul 1, 2016 at 8:29:55 PM

Latest Report: Jul 1, 2016 at 7:53 PM


Visibility: 10 mi

Pressure: 29.95 "Hg

Humidity: 42%

Dew Point: 60 °F

Location of KnoxvilleLocation

Past Weather in Knoxville — Graph

°F

Knoxville Temperature Yesterday

Maximum temperature yesterday: 89 °F (at 3:53 PM)
Minimum temperature yesterday: 64 °F (at 5:53 AM)
Average temperature yesterday: 78 °F

High & Low Weather Summary for the Past Weeks

 TemperatureHumidityPressure
High94 °F (Jun 23, 3:53 PM)94% (Jun 28, 1:53 AM)30.33 "Hg (Jun 28, 1:53 AM)
Low64 °F (Jun 20, 6:53 AM)22% (Jun 30, 6:53 PM)29.77 "Hg (Jun 16, 6:53 PM)
Average79 °F62%30.03 "Hg
* Reported Jun 16 6:53 PM — Jul 1 6:53 PM, Knoxville, Weather by CustomWeather, © 2016

Note: Actual official high and low records may vary slightly from our data, if they occured in-between our weather recording intervals... More about our weather records

Advertising

Knoxville Weather History for the Previous 24 Hours

Scroll right to see more
 ConditionsComfort  
Time TempWeatherWind HumidityBarometerVisibility
6:53 PM
Fri, Jul 1
87 °FPassing clouds.No wind37%29.95 "Hg10 mi
5:53 PM88 °FScattered clouds.6 mph36%29.95 "Hg10 mi
4:53 PM89 °FScattered clouds.No wind32%29.95 "Hg10 mi
3:53 PM86 °FBroken clouds.8 mph36%29.96 "Hg10 mi
2:53 PM87 °FBroken clouds.7 mph36%29.98 "Hg10 mi
1:53 PM86 °FBroken clouds.10 mph35%29.98 "Hg10 mi
12:53 PM87 °FBroken clouds.8 mph37%29.99 "Hg10 mi
11:53 AM84 °FScattered clouds.10 mph49%29.99 "Hg10 mi
10:53 AM81 °FScattered clouds.8 mph60%29.99 "Hg10 mi
9:53 AM77 °FScattered clouds.3 mph69%29.99 "Hg10 mi
8:53 AM73 °FScattered clouds.3 mph74%29.99 "Hg10 mi
7:53 AM69 °FScattered clouds.No wind76%29.98 "Hg10 mi
6:53 AM66 °FPassing clouds.No wind84%29.96 "Hg10 mi
5:53 AM66 °FPassing clouds.No wind84%29.95 "Hg10 mi
4:53 AM66 °FClear.No wind84%29.93 "Hg10 mi
3:53 AM68 °FClear.No wind78%29.93 "Hg10 mi
2:53 AM69 °FClear.No wind73%29.94 "Hg10 mi
1:53 AM70 °FClear.No wind76%29.96 "Hg10 mi
12:53 AM71 °FClear.5 mph71%29.96 "Hg10 mi
11:53 PM
Thu, Jun 30
74 °FPassing clouds.No wind60%29.96 "Hg10 mi
10:53 PM78 °FPassing clouds.3 mph50%29.95 "Hg10 mi
9:53 PM79 °FScattered clouds.3 mph47%29.94 "Hg10 mi
8:53 PM84 °FScattered clouds.6 mph36%29.93 "Hg10 mi
Weather by CustomWeather, © 2016

See weather overviewHow to use our weather pages